{"data":{"norad_id":55841,"epoch":"2026-05-24T10:55:37.570944Z","epoch_age_seconds":121342,"freshness":"FRESH","line1":"1 55841U 23031A   26144.45529596  .00000028  00000+0  00000+0 0  9992","line2":"2 55841   0.0315  64.1940 0000543 123.6452 280.1163  1.00274145 11707","mean_motion":1.00274145,"eccentricity":5.43e-5,"inclination_deg":0.0315,"raan_deg":64.194,"arg_perigee_deg":123.6452,"mean_anomaly_deg":280.1163,"bstar":0,"rev_number":1170,"period_min":1436.0631048013,"perigee_km":35783.643871474,"apogee_km":35788.222889518,"semimajor_km":42164.070380496,"source":"CELESTRAK","updated_at":"2026-05-25T13:38:14.138998Z"}}